Regional Weather Roundup
Issued by NWS Upton, NY

Current Version | Previous Version | Text Only | Print | Product List | Glossary On
Versions: 1 2 3 4 5 6 7 8 9 10 11 12 13 14 15 16 17 18 19 20 21 22 23 24 25 26 27 28 29 30 31 32 33 34 35 36 37 38 39 40 41 42 43 44 45 46 47 48 49 50
000
ASUS41 KOKX 200605
RWROKX

REGIONAL WEATHER ROUNDUP
NATIONAL WEATHER SERVICE NEW YORK NY
100 AM EST SAT DEC 20 2014

NOTE: "FAIR" INDICATES FEW OR NO CLOUDS BELOW 12,000 FEET WITH NO
SIGNIFICANT WEATHER AND/OR OBSTRUCTIONS TO VISIBILITY.

NYZ071-072-176-178-NJZ106-104-200700-
NEW YORK CITY METRO AREA


CITY           SKY/WX    TMP DP  RH WIND       PRES   REMARKS
CENTRAL PARK   CLOUDY    32  20  61 VRB7      30.21S WCI  26
LAGUARDIA APRT CLOUDY    32  22  66 N10       30.19F WCI  24
KENNEDY INTL   CLOUDY    33  21  61 NW9       30.20F WCI  25
NEWARK/LIBERTY CLOUDY    32  21  64 N10       30.20S WCI  24
BRNX BOT. GARD   N/A    N/A N/A N/A N9        30.19F
TETERBORO      CLOUDY    32  21  64 N6        30.19F WCI  26
$$

NYZ177-179-078>081-200700-
LONG ISLAND NEW YORK

CITY           SKY/WX    TMP DP  RH WIND       PRES   REMARKS
FARMINGDALE    CLEAR     31  20  63 N5        30.19S WCI  26
ISLIP          MOCLDY    31  22  69 N6        30.17R WCI  25
SHIRLEY        CLOUDY    30  22  72 NW3       30.19R
WESTHAMPTON    CLOUDY    32  22  66 N7        30.19R WCI  26
MONTAUK POINT    N/A     34  23  64 NW6       30.17R WCI  29
$$

NYZ052-065-067-200700-
HUDSON VALLEY

CITY           SKY/WX    TMP DP  RH WIND       PRES   REMARKS
WHITE PLAINS   CLEAR     27  19  72 N12       30.16F WCI  17
NEWBURGH       CLOUDY    28  23  80 VRB6      30.20R WCI  22
MONTGOMERY     CLOUDY    28  23  81 CALM      30.18S
POUGHKEEPSIE   CLOUDY    29  21  72 CALM      30.21R
ALBANY         CLOUDY    26  18  71 NW10      30.23R WCI  16
$$

NJZ001-105-106-008-010-013-015-019>022-104-200700-
NEW JERSEY

CITY           SKY/WX    TMP DP  RH WIND       PRES   REMARKS
NEWARK/LIBERTY CLOUDY    32  21  64 N10       30.20S WCI  24
TETERBORO      CLOUDY    32  21  64 N6        30.19F WCI  26
CALDWELL       CLOUDY    31  21  66 VRB3      30.20S
MORRISTOWN     CLOUDY    34  21  60 N5        30.19F WCI  30
SOMERVILLE     CLOUDY    33  21  61 N10G16    30.18F WCI  25
SUSSEX         CLOUDY    29  21  72 NW7       30.18F WCI  22
ANDOVER          N/A     29  20  69 VRB7      30.17F WCI  22
TRENTON        CLOUDY    32  21  64 N5        30.19S WCI  27
MILLVILLE      CLEAR     20  18  92 CALM      30.20F
ATLANTIC CITY  CLEAR     26  20  77 W3        30.20F
WRIGHTSTOWN    CLOUDY    31  22  69 NW1       30.17S
TOMS RIVER     CLOUDY    30  21  69 CALM      30.20R
BELMAR         CLOUDY    30  18  59 NW6       30.18S WCI  24
$$

PAZ047>061-062-071-200700-
EASTERN PENNSYLVANIA

CITY           SKY/WX    TMP DP  RH WIND       PRES   REMARKS
PHILADELPHIA   CLOUDY    34  20  56 W3        30.21F
ALLENTOWN      CLOUDY    32  21  64 N12       30.18F WCI  23
SCRANTON       CLOUDY    29  19  66 N13       30.17F WCI  19
$$

CTZ002-004>006-009-010-012-RIZ004-006-007-MAZ004-011-015-200700-
SOUTHERN NEW ENGLAND
 IN CT

CITY           SKY/WX    TMP DP  RH WIND       PRES   REMARKS
BRADLEY INTL   PTCLDY    27  19  72 N6        30.17R WCI  20
HARTFORD       CLEAR     29  20  69 N7        30.19R WCI  22
DANBURY        CLOUDY    28  18  66 N8        30.19R WCI  20
WTRBRY/OXFORD  CLOUDY    27  16  63 N8        30.17R WCI  18
BRIDGEPORT     CLOUDY    30  21  69 NW5       30.20R WCI  25
MERIDEN        CLOUDY    30  20  66 NW7       30.18R WCI  23
NEW HAVEN      CLOUDY    33  21  61 N5        30.19R WCI  29
CHESTER        FAIR      30  23  74 NW6       30.16S WCI  24
GROTON         MOCLDY    29  21  72 NW6       30.17R WCI  23
WILLIMANTIC    CLEAR     27  20  75 CALM      30.17R

 IN RI

CITY           SKY/WX    TMP DP  RH WIND       PRES   REMARKS
PROVIDENCE     CLEAR     27  20  75 NW5       30.16R WCI  22
BLOCK ISLAND   MOCLDY    32  19  59 NW5       30.15R WCI  27
WESTERLY       CLEAR     29  22  75 W3        30.17R

 IN MA

CITY           SKY/WX    TMP DP  RH WIND       PRES   REMARKS
BOSTON         CLEAR     28  21  75 NW7       30.17R WCI  21
WORCESTER      CLEAR     24  18  77 N8        30.10S WCI  15
WESTFIELD      CLEAR     24  18  77 N6        30.17R WCI  17
PROVINCETOWN   CLOUDY    37  28  70 N12G17    30.12S WCI  30
NANTUCKET      CLOUDY    37  27  67 NW10      30.12R WCI  30
$$

ANZ330-335-338-340-345-350-353-355-200700-
COASTAL MARINE OBSERVATIONS


STATION/POSITION TIME  SKY/WX   TEMP    WIND        PRES    VSBY  WAVE
                                AIR SEA DIR/SP/G                  HT/PER
                 (UTC)          (F)     (DEG/KT/KT) (MB)    (MI)  (FT/S)
NY HARB ENTRANCE 0600            34 47  340/ 14/ 16 1022.4          1/ 3
4S FIRE IS       0600               46                N/A           2/ 3
20S FIRE ISLAND  0500            37 49              1022.2          2/ 4
23SW MTP         0600                                 N/A           2/ 4
HUDSON CANYON    0600            39 54  320/ 12/ 16 1020.8          3/ 6
EXECUTION ROCKS  0600            33 42   20/ 10/ 16   N/A
WESTERN LI SOUND 0500            32     320/ 12/ 14   N/A           0
CENTRAL LI SOUND 0500            32 44  330/ 10/ 16   N/A           1/ 2
EASTERN LI SOUND NOT AVBL
ROBBINS REEF     0600            32     140/  4/  6 1021.3
$$


>>>>>>>>>>>>>>>>>>>>>>>>>>>> KEY <<<<<<<<<<<<<<<<<<<<<<<<<<<
>                                                          <
>     SKY/WX - SKY CONDITION/PRESENT WEATHER               <
>     TMP    - TEMPERATURE IN FAHRENHEIT                   <
>     DP     - DEWPOINT IN FAHRENHEIT                      <
>     RH     - RELATIVE HUMIDITY IN PERCENT                <
>     WIND   - DIRECTION AND SPEED IN MPH                  <
>     PRES   - MEAN SEA LEVEL PRESSURE IN INCHES OF HG     <
>     WCI    - WIND CHILL INDEX                            <
>     VSB    - VISIBILITY IN MILES                         <
>     HX     - HEAT INDEX                                  <
>     TC     - TEMPERATURE IN CELSIUS                      <
>     VRB    - VARIABLE WIND DIRECTION                     <
>                                                          <
>>>>>>>>>>>>>>>>>>>>>>>>>>>> KEY <<<<<<<<<<<<<<<<<<<<<<<<<<<





USA.gov is the U.S. government's official web portal to all federal, state and local government web resources and services.